Location: Mentone
(34.5413°N, 85.5351°W)
Time: 09:23:41
(UTC-05:00)

Tiros 1 despin weight - Visible Passes

Search period start: 30 October 2014 00:00
Search period end: 08 November 2014 23:00
Orbit: 600 x 652 km, 48.2° (Epoch: 29 October)

Date Brightness Start Highest point End Pass type
(mag) Time Alt. Az. Time Alt. Az. Time Alt. Az.
30 Oct ? 05:08:43 35° SSW 05:10:21 52° SE 05:14:54 10° ENE visible
31 Oct ? 03:50:36 12° E 03:50:36 12° E 03:51:09 10° E visible
31 Oct ? 05:27:53 42° WSW 05:29:26 76° NW 05:34:07 10° NE visible
01 Nov ? 04:09:35 20° E 04:09:35 20° E 04:11:17 10° ENE visible
01 Nov ? 05:46:50 28° WNW 05:48:40 40° NNW 05:53:06 10° NE visible
02 Nov ? 03:28:23 28° ENE 03:28:23 28° ENE 03:30:39 10° NE visible
02 Nov ? 05:05:38 17° WNW 05:08:05 25° NNW 05:11:59 10° NE visible
03 Nov ? 03:47:02 31° NNE 03:47:02 31° NNE 03:49:41 10° NE visible
03 Nov ? 05:24:21 10° WNW 05:27:39 18° NNW 05:30:55 10° NNE visible
04 Nov ? 04:05:35 27° N 04:05:35 27° N 04:08:35 10° NE visible
05 Nov ? 04:24:03 21° NNW 04:24:03 21° NNW 04:27:27 10° NNE visible
06 Nov ? 04:42:27 15° NNW 04:43:29 16° N 04:46:28 10° NNE visible
07 Nov ? 03:23:34 12° NNE 03:23:34 12° NNE 03:23:57 10° NE visible
07 Nov ? 05:00:47 11° NNW 05:03:10 15° N 05:05:52 10° NE visible
08 Nov ? 03:41:52 14° NNE 03:41:52 14° NNE 03:42:52 10° NNE visible
08 Nov ? 05:19:54 10° NNW 05:22:50 16° N 05:25:45 10° NE visible
